www.pogodaiklimat.ru

Погода и климат >> Архив погоды >> Таиланд >> Такфа Агромет


ПОГОДА в Такфа Агромете

  • Прогноз погоды в Такфа Агромете
  • Монитор погоды в Такфа Агромете

АРХИВ ПОГОДЫ в Такфа Агромете

Время (UTC), дата Ветер
(напр.,м/с)
 
Видим.   Явления Облачность Т
(С)
Тd
(С)
f
(%)
Тe
(С)
Тes
(С)
Комфортность P
(гПа)
Po
(гПа)
Тmin
(С)
Tmax
(С)
R
(мм)
R24
(мм)
S
(см)
09 10.06 ЮЗ 5 9000 м мгла 4/4 600 м
[Cu hum]
+33.4 +24.0 58 +45 +48 опасность
перегрева
1003.0 992.5
12 10.06 Ю 2 8000 м дымка 8/3 600 м
[Sc Ac lent Cs]
+31.7 +24.3 65 +44 +44 опасность
перегрева
1004.6 994.1 +34.3
15 10.06 ЮЗ 2 7000 м дымка 3/0
[Ci fib]
+29.5 +22.1 64 +38 +38 очень
душно
1006.9 996.4
18 10.06 штиль 0 5000 м дымка 3/0
[Cs]
+27.8 +24.6 83 +39 +39 очень
душно
1006.8 996.1
21 10.06 штиль 0 6000 м дымка 6/3 600 м
[Cu med, cong Ac lent Cs]
+27.0 +24.1 84 +37 +37 очень
душно
1006.2 995.6
00 11.06 штиль 0 7000 м дымка 9/0
[Ac As Cs]
+27.2 +24.2 84 +38 +39 очень
душно
1007.2 996.6 +26.7
03 11.06 Ю 4 9000 м дымка 8/3 600 м
[Cu hum Ac trans Cs]
+30.7 +23.9 67 +42 +47 опасность
перегрева
1008.6 998.1
06 11.06 Ю 4 10 км 9/4 600 м
[Cu Sc Ac As Cs]
+33.2 +23.9 58 +45 +50 опасность
перегрева
1006.4 996.0
09 11.06 Ю 4 10 км 8/5 600 м
[Cu med, cong Ac trans Cs]
+33.0 +23.7 58 +44 +46 опасность
перегрева
1004.5 994.0
12 11.06 Ю 4 7000 м дымка 8/4 600 м
[Cu Sc Ac As Cs]
+28.5 +24.5 79 +40 +40 очень
душно
1006.1 995.5 +33.7
15 11.06 штиль 0 7000 м дымка 6/3 600 м
[Sc Ac trans Cs]
+27.2 +24.8 87 +39 +39 очень
душно
1007.9 997.2
18 11.06 Ю 2 6000 м дымка 9/3 600 м
[Sc Ac As Cs]
+27.0 +24.8 88 +39 +39 очень
душно
1008.3 997.6
21 11.06 штиль 0 6000 м дымка 9/3 600 м
[Sc Ac As Cs]
+26.7 +25.0 90 +38 +38 очень
душно
1007.3 996.7
00 12.06 Ю 2 8000 м дымка 8/3 600 м
[Sc Ac As Cs]
+28.0 +25.1 84 +40 +41 очень
душно
1007.5 996.9 +26.4
03 12.06 Ю 4 8000 м дымка 9/8 600 м
[Cu med, cong Cs]
+31.0 +24.7 69 +44 +46 опасность
перегрева
1008.7 998.2
06 12.06 ЮЗ 4 8000 м мгла 8/6 600 м
[Cu med, cong Cs]
+33.2 +25.2 63 +47 +52 опасность
перегрева
1006.9 996.5
09 12.06 Ю 4 8000 м мгла 9/4 600 м
[Cu med, cong Ac lent Cs]
+32.7 +23.3 58 +43 +45 опасность
перегрева
1004.7 994.3
12 12.06 ЮЗ 3 7000 м дымка 8/4 600 м
[Sc Cs]
+30.5 +23.6 67 +42 +42 опасность
перегрева
1005.3 994.8 +34.3
15 12.06 штиль 0 6000 м дымка 8/3 600 м
[Sc Ac As Cs]
+29.4 +24.2 74 +41 +41 опасность
перегрева
1008.0 997.4
18 12.06 Ю 1 6000 м дымка 8/3 600 м
[Sc Ac As Cs]
+28.5 +24.9 81 +41 +41 опасность
перегрева
1007.0 996.4
21 12.06 Ю 2 6000 м дымка 8/3 600 м
[Sc Ac As Cs]
+27.6 +23.8 80 +38 +38 очень
душно
1006.2 995.6
00 13.06 штиль 0 8000 м дымка 8/3 600 м
[Sc Ac trans Cs]
+27.8 +25.4 87 +41 +42 опасность
перегрева
1007.4 996.8 +26.8
03 13.06 Ю 4 9000 м мгла 6/4 600 м
[Cu med, cong Ac trans Cs]
+32.0 +24.5 65 +45 +50 опасность
перегрева
1008.3 997.8
06 13.06 ЮЗ 2 10 км 9/5 600 м
[Cu med, cong Ac As Cs]
+33.2 +24.7 61 +46 +53 опасность
перегрева
1006.9 996.4
09 13.06 Ю 2 10 км 9/6 600 м
[Cu Sc Ac trans Cs]
+33.7 +24.2 58 +46 +48 опасность
перегрева
1004.4 994.0
12 13.06 Ю 2 9000 м мгла 6/3 600 м
[Cu med, cong Ac lent Cs]
+31.5 +23.9 64 +43 +43 опасность
перегрева
1005.5 995.0 +34.3
15 13.06 штиль 0 7000 м дымка 4/1 600 м
[Sc Ac lent Cs]
+27.5 +25.4 88 +40 +40 очень
душно
1008.2 997.5
18 13.06 Ю 2 7000 м дымка 9/1 600 м
[Sc Ac As Cs]
+27.0 +24.8 88 +39 +39 очень
душно
1007.5 996.8
21 13.06 штиль 0 6000 м дымка 9/3 600 м
[Sc Ac As Cs]
+26.5 +25.1 92 +38 +38 очень
душно
1006.8 996.1
00 14.06 штиль 0 8000 м дымка 8/3 600 м
[Sc Ac As Cs]
+27.3 +25.0 87 +39 +40 очень
душно
1007.9 997.2 +26.3
03 14.06 Ю 4 8000 м дымка 6/3 600 м
[Cu hum Ac lent Ci fib]
+31.7 +24.6 66 +44 +50 опасность
перегрева
1008.1 997.6
06 14.06 ЮЗ 4 9000 м мгла 8/3 600 м
[Cu hum Ac und Cs]
+34.0 +23.7 55 +45 +52 опасность
перегрева
1006.5 996.1
09 14.06 ЮЗ 5 9000 м мгла 4/1 600 м
[Cu med, cong Cs]
+34.7 +25.0 57 +48 +52 опасность
перегрева
1003.6 993.2
12 14.06 Ю 1 7000 м мгла 3/3 600 м
[Cb cap Cs]
+32.5 +24.2 62 +45 +45 опасность
перегрева
1004.5 994.0 +35.4
15 14.06 штиль 0 7000 м зарница {гроза} 6/3 600 м
[Cb cap Ac As Cs]
+29.7 +24.4 73 +42 +42 опасность
перегрева
1008.3 997.7
18 14.06 штиль 0 7000 м дымка {гроза} 3/0
[Cs]
+28.0 +24.4 81 +39 +39 очень
душно
1007.5 996.9
21 14.06 штиль 0 6000 м дымка 3/0
[Cs]
+26.8 +23.9 84 +37 +37 очень
душно
1005.9 995.2
00 15.06 штиль 0 9000 м дымка 3/1 600 м
[Sc Ac lent Cs]
+27.0 +24.1 84 +37 +39 очень
душно
1008.2 997.5 +26.0
03 15.06 ЮЗ 2 10 км 3/3 600 м
[Cu hum Ac lent Cs]
+32.2 +24.4 63 +44 +55 опасность
перегрева
1008.4 997.9
06 15.06 Ю 2 11 км 6/4 600 м
[Cu med, cong Ac lent Cs]
+34.7 +25.0 57 +48 +59 опасность
перегрева
1006.5 996.1
09 15.06 Ю 2 11 км 6/4 600 м
[Cu med, cong Ac lent Cs]
+35.0 +23.6 52 +46 +50 опасность
перегрева
1003.9 993.6
12 15.06 штиль 0 8000 м дымка {гроза, дождь} 8/4 600 м
[Cu Sc Ac trans Cs]
+26.8 +24.9 89 +38 +38 очень
душно
1005.8 995.1 +35.9 0.7
15 15.06 штиль 0 7000 м дымка 8/3 600 м
[Sc Ac As Cs]
+27.5 +24.9 86 +39 +39 очень
душно
1008.0 997.4
18 15.06 штиль 0 7000 м дымка 8/3 600 м
[Sc Ac As Cs]
+27.5 +25.4 88 +40 +40 очень
душно
1008.0 997.3
21 15.06 штиль 0 6000 м дымка 9/3 600 м
[Sc Ac As Cs]
+27.0 +25.6 92 +40 +40 очень
душно
1006.8 996.1
00 16.06 штиль 0 6000 м дымка 9/3 600 м
[Sc Ac As Cs]
+26.7 +25.3 92 +39 +40 очень
душно
1007.3 996.6 +26.4
03 16.06 Ю 3 8000 м дымка 8/3 600 м
[Cu med, cong Ac As Cs]
+30.8 +25.4 73 +45 +51 опасность
перегрева
1008.1 997.6
06 16.06 Ю 4 7000 м мгла 8/3 600 м
[Cu med, cong Ac As Cs]
+33.3 +24.3 59 +45 +52 опасность
перегрева
1006.1 995.7
09 16.06 ЮЗ 2 7000 м мгла 8/3 600 м
[Cu med, cong Ac As Cs]
+33.5 +24.7 60 +47 +50 опасность
перегрева
1003.9 993.5
12 16.06 З 1 6000 м слаб. дождь 10/8 600 м
[Sc Ac As]
+26.2 +23.7 86 +36 +36 очень
душно
1005.9 995.2 +35.0 0.7
15 16.06 штиль 0 5000 м дымка {дождь} 9/4 600 м
[Sc Ac As Cs]
+25.7 +24.5 93 +36 +36 очень
душно
1008.0 997.2 0.5
18 16.06 штиль 0 5000 м дымка {дождь} 9/3 600 м
[Sc Ac As Cs]
+25.7 +24.7 94 +36 +36 очень
душно
1006.9 996.2 1
21 16.06 штиль 0 5000 м дымка 9/4 600 м
[Sc Ac As Cs]
+26.3 +25.3 94 +38 +38 очень
душно
1005.9 995.2
00 17.06 штиль 0 4000 м дымка 10/8 600 м
[Sc Ac As]
+26.5 +25.5 94 +39 +39 очень
душно
1007.3 996.6 +25.4
03 17.06 Ю 4 8000 м дымка 10/4 600 м
[Sc Ac As]
+30.0 +24.7 73 +43 +44 опасность
перегрева
1008.0 997.4
06 17.06 Ю 5 9000 м мгла 9/3 600 м
[Sc Ac As Cs]
+30.4 +22.8 64 +40 +45 очень
душно
1006.9 996.4

 

Местоположение метеостанции Такфа Агромет (Таиланд): широта 15.35 долгота 100.50 высота над уровнем моря 87 м.

В архиве по умолчанию представлена погода в Такфа Агромете за последнюю неделю. Архивные данные за месяц целиком и за предыдущие месяцы, начиная с января 2011 года, Вы можете получить, выбрав интересующий диапазон дат из раскрывающегося списка и нажав кнопку "Ввод!".


*Определитесь, кто Вы:
робот инопланетянин человек

Внимание! Время в таблицах - всемирное. Для получения местного времени необходимо прибавить поправку, которая равна 7 ч.

Смотрите также архив погоды в соседних городах и на ближайших метеорологических станциях:

Погода в Чайнат Агромете (Таиланд) (41 км)
Погода в Утай Тани (Таиланд) (49 км)
Погода в Лаем-Чабанге (Таиланд) (51 км)
Погода в Накхон Саван (Таиланд) (62 км)
Погода в Лопбури (Таиланд) (62 км)
Погода в Вичан Бури (Таиланд) (72 км)
Погода в Буа Чум (Таиланд) (73 км)
Погода в Аюттхая (Таиланд) (95 км)
Погода в Сарабури (Таиланд) (103 км)
Погода в Суфанбури (Таиланд) (106 км)

Пояснения к столбцам:

Ветер - указаны скорость ветра в м/с - средняя за 10 мин, порывы в срок и между сроками (в фигурных скобках) и направление, откуда дует ветер: С - северный, СВ - северо-восточный, В - восточный, ЮВ - юго-восточный, Ю - южный, ЮЗ - юго-западный, З - западный, СЗ - северо-западный.
Видимость - горизонтальная дальность видимости в метрах или километрах. При видимости от 1 до 10 км при отсутствии осадков обычно наблюдается дымка, при ухудшении видимости до 1 км и менее - туман. В сухую погоду видимость может ухудшаться дымом, пылью или мглою.
Явления - указаны атмосферные явления, наблюдавшиеся в срок или в последний час перед сроком; фигурными скобками обозначены явления, наблюдавшиеся между сроками (за 1-3 часа до срока); квадратными скобками обозначены град или гололедные отложения с указанием их диаметра в мм.
Облачность - указаны через наклонную черту общая и нижняя облачность в баллах и высота нижней границы облаков в метрах; квадратными скобками обозначены формы облаков: Ci - перистые, Cs - перисто-слоистые, Cc - перисто-кучевые, Ac - высококучевые, As - высокослоистые, Sc - слоисто-кучевые, Ns - слоисто-дождевые, Cu - кучевые, Cb - кучево-дождевые. Подробнее классификацию облаков см. в Атласе облаков (PDF).
T - Температура воздуха - температура, измеренная на высоте 2 м над землей.
Td - Температура точки росы - температура, при понижении до которой содержащийся в воздухе водяной пар достигнет насыщения.
f - Относительная влажность воздуха - влажноcть воздуха, измеренная на высоте 2 м над землей.
Te - Эффективная температура - температура, которую ощущает одетый по сезону человек в тени. Характеристика душности погоды. При расчете учитывается влияние влажности воздуха и скорости ветра на теплоощущения человека.
Tes - Эффективная температура на солнце - температура, которую ощущает человек, с поправкой на солнечный нагрев. Характеристика знойности погоды. Зависит от высоты солнца над горизонтом, облачности и скорости ветра. Ночью, в пасмурную погоду, а также при ветре 12 м/с и более поправка равна нулю.
P - Атмосферное давление - приведенное к уровню моря атмосферное давление.
Po - Атмосферное давление - измеренное на уровне метеостанции атмосферное давление.
Tmin - Минимальная температура - минимум температуры воздуха на высоте 2 м над землей.
Tmax - Максимальная температура - максимум температуры воздуха на высоте 2 м над землей.
R - Количество осадков - Количество выпавших осадков за период времени, мм. При наведении курсора мыши на число - период времени, за который выпало указанное количество осадков.
R24 - Количество осадков - Количество выпавших осадков за 24 часа, мм.
S - Снежный покров - Высота снежного покрова, см. При наведении курсора мыши на число - состояние снежного покрова и степень покрытия местности в баллах.